Date,TemperatureHighF,TemperatureAvgF,TemperatureLowF,DewpointHighF,DewpointAvgF,DewpointLowF,HumidityHigh,HumidityAvg,HumidityLow,PressureMaxIn,PressureMinIn,WindSpeedMaxMPH,WindSpeedAvgMPH,GustSpeedMaxMPH,PrecipitationSumIn
2012-1-1,74.7,66.0,59.2,60.9,54.6,48.6,86,69,42,30.24,30.15,0,0,0,0.00
2012-1-2,66.9,63.1,57.4,63.7,48.6,-99.9,90,62,36,30.21,30.06,0,0,0,0.00
2012-1-3,59.4,51.5,43.5,32.9,25.0,19.3,40,35,30,30.33,30.15,0,0,0,0.12
2012-1-4,55.6,45.6,37.0,28.0,18.8,11.0,53,35,23,30.36,30.24,0,0,0,0.00
2012-1-5,64.9,53.2,41.2,46.2,39.0,27.5,80,60,42,30.24,30.12,0,0,0,0.00
2012-1-6,69.3,60.4,51.1,59.3,49.2,44.6,91,68,44,30.18,30.06,0,0,0,0.00
2012-1-7,70.0,63.0,57.2,58.5,51.9,46.2,89,69,44,30.12,30.04,0,0,0,0.00
2012-1-8,72.1,63.8,54.9,57.0,49.9,44.2,86,63,38,30.18,30.09,0,0,0,0.00
2012-1-9,75.0,65.7,57.9,60.2,53.3,49.0,87,66,41,30.15,30.06,0,0,0,0.00
2012-1-10,74.7,66.7,59.4,61.9,54.7,50.6,89,67,44,30.06,29.92,0,0,0,0.00
2012-1-11,67.8,65.7,63.7,61.4,58.4,56.0,82,77,72,29.95,29.80,0,0,0,0.00
2012-1-12,74.5,69.8,63.3,64.0,55.6,50.8,88,62,44,29.95,29.86,0,0,0,0.00
2012-1-13,68.4,60.3,54.9,60.7,41.5,34.8,78,51,39,30.18,29.95,0,0,0,0.00
2012-1-14,57.0,53.4,48.7,40.5,29.6,23.3,54,41,28,30.30,30.18,0,0,0,0.00
2012-1-15,65.5,54.5,43.7,44.5,37.0,30.9,75,53,28,30.39,30.27,0,0,0,0.00
2012-1-16,71.6,60.4,49.8,43.5,39.6,33.4,62,47,33,30.36,30.24,0,0,0,0.00
2012-1-17,72.7,63.4,55.0,52.8,47.7,42.5,73,58,40,30.27,30.12,0,0,0,0.00
2012-1-18,71.6,64.6,57.0,63.5,57.0,50.2,91,77,57,30.12,29.98,0,0,0,0.25
2012-1-19,68.2,60.5,55.2,59.2,43.4,33.5,86,56,32,30.12,30.01,0,0,0,0.00
2012-1-20,72.5,61.9,52.3,50.6,44.5,33.2,72,54,36,30.15,30.06,0,0,0,0.00
2012-1-21,72.7,64.9,56.3,57.4,52.3,48.8,84,65,46,30.09,30.01,0,0,0,0.00
2012-1-22,73.8,66.4,59.2,63.0,55.5,52.6,87,69,49,30.12,30.04,0,0,0,0.00
2012-1-23,75.7,68.8,61.7,64.6,59.1,54.6,88,72,53,30.12,30.04,0,0,0,0.00
2012-1-24,77.2,69.9,63.0,65.4,58.7,52.8,90,70,43,30.15,30.06,0,0,0,0.00
2012-1-25,79.3,71.0,64.8,66.8,58.9,53.1,90,68,42,30.15,30.06,0,0,0,0.00
2012-1-26,77.7,71.8,65.8,66.3,61.0,57.5,89,70,51,30.06,29.95,0,0,0,0.00
2012-1-27,70.9,68.8,66.9,66.3,63.1,56.0,92,83,63,30.04,29.95,0,0,0,0.68
2012-1-28,68.2,64.8,60.4,57.8,49.7,45.5,86,59,45,30.21,30.12,0,0,0,0.00
2012-1-29,70.3,63.7,57.9,52.2,46.5,38.4,73,56,32,30.30,30.18,0,0,0,0.00
2012-1-30,73.0,62.9,53.8,49.9,41.1,34.5,73,47,30,30.36,30.24,0,0,0,0.00
2012-1-31,77.4,63.1,58.6,47.8,44.7,39.5,64,52,28,30.33,30.21,0,0,0,0.00
2012-2-1,77.2,67.0,61.0,59.3,52.8,46.6,80,61,41,30.27,30.15,0,0,0,0.00
2012-2-2,75.4,68.1,61.9,62.3,55.4,49.3,83,65,41,30.18,30.09,0,0,0,0.00
2012-2-3,73.6,69.5,65.3,60.0,56.2,51.3,81,64,46,30.24,30.15,0,0,0,0.00
2012-2-4,79.9,70.8,65.5,61.6,58.0,52.7,81,65,40,30.21,30.09,0,0,0,0.00
2012-2-5,76.6,71.3,67.5,66.0,61.6,54.0,87,72,47,30.12,30.01,0,0,0,0.00
2012-2-6,79.2,71.4,68.7,66.3,63.6,57.5,89,78,49,30.09,29.98,0,0,0,1.00
2012-2-7,72.7,69.2,66.7,68.6,64.2,61.6,93,84,73,30.09,30.01,0,0,0,0.00
2012-2-8,72.3,66.4,62.8,62.1,52.2,45.9,82,62,41,30.12,30.04,0,0,0,0.00
2012-2-9,71.4,65.3,59.7,54.6,48.2,43.5,71,55,42,30.15,30.06,0,0,0,0.00
2012-2-10,76.1,67.3,61.2,63.6,58.2,49.2,90,73,57,30.12,29.92,0,0,0,0.28
2012-2-11,65.8,61.3,55.6,62.8,47.3,30.5,90,62,38,30.18,29.92,0,0,0,0.05
2012-2-12,55.4,47.0,39.4,31.2,19.8,14.0,44,34,27,30.33,30.15,0,0,0,0.00
2012-2-13,63.9,51.2,40.3,40.9,28.5,16.7,61,42,29,30.27,30.09,0,0,0,0.00
2012-2-14,73.2,62.4,51.1,56.9,48.7,40.0,78,62,42,30.12,30.04,0,0,0,0.00
2012-2-15,76.8,68.3,62.6,61.7,56.3,51.3,87,68,41,30.21,30.09,0,0,0,0.00
2012-2-16,76.6,69.8,63.5,62.4,59.1,56.6,84,70,50,30.18,30.09,0,0,0,0.00
2012-2-17,74.3,70.0,67.8,65.4,63.4,59.9,87,80,62,30.09,30.04,0,0,0,0.00
2012-2-18,75.9,71.2,66.4,67.3,62.8,57.7,91,76,54,30.04,29.92,0,0,0,0.00
2012-2-19,76.5,71.0,65.5,70.8,63.9,48.6,93,79,54,30.01,29.89,0,0,0,0.00
2012-2-20,70.5,65.2,60.3,50.5,45.4,41.6,59,49,36,30.15,29.98,0,0,0,0.00
2012-2-21,76.5,68.0,55.9,58.1,51.4,48.4,80,57,40,30.24,30.12,0,0,0,0.00
2012-2-22,75.9,68.1,62.8,66.1,60.7,56.3,87,78,55,30.12,29.98,0,0,0,0.00
2012-2-23,78.6,73.1,70.2,69.3,66.7,63.0,91,81,60,30.01,29.92,0,0,0,0.00
2012-2-24,81.0,74.1,69.6,71.3,67.2,61.5,94,80,53,30.06,29.98,0,0,0,0.00
2012-2-25,73.0,68.4,62.2,69.9,41.3,28.2,91,41,24,30.24,30.06,0,0,0,0.04
2012-2-26,74.3,66.0,59.5,61.4,44.4,28.4,79,47,28,30.27,30.21,0,0,0,0.00
2012-2-27,83.1,74.2,68.2,65.6,61.3,56.5,85,66,41,30.33,30.21,0,0,0,0.00
2012-2-28,81.3,73.5,69.1,67.6,63.0,58.3,88,71,46,30.30,30.21,0,0,0,0.00
2012-2-29,81.9,73.5,68.4,66.8,62.5,56.8,88,70,44,30.24,30.15,0,0,0,0.00
2012-3-1,81.0,73.1,67.1,69.5,63.0,58.0,89,72,47,30.15,30.06,0,0,0,0.00
2012-3-2,81.7,74.6,69.1,69.5,65.6,61.8,89,75,52,30.09,30.01,0,0,0,0.00
2012-3-3,81.7,76.6,73.6,70.6,67.8,64.5,86,75,59,30.01,29.89,0,0,0,0.00
2012-3-4,75.2,65.8,58.1,71.4,43.6,26.0,88,49,24,30.24,29.77,0,0,0,0.00
2012-3-5,73.0,65.7,54.0,43.0,36.0,29.4,50,34,21,30.39,30.24,0,0,0,0.00
2012-3-6,78.3,66.6,55.8,48.7,43.9,38.2,69,46,24,30.39,30.30,0,0,0,0.00
2012-3-7,80.8,68.0,62.2,57.0,49.0,45.3,68,52,30,30.39,30.27,0,0,0,0.00
2012-3-8,84.2,72.5,65.1,62.8,57.6,49.2,86,63,31,30.30,30.18,0,0,0,0.00
2012-3-9,80.4,70.9,67.6,66.0,61.8,56.2,85,74,45,30.24,30.15,0,0,0,0.00
2012-3-10,79.0,72.4,67.3,65.6,60.2,54.1,86,67,43,30.24,30.15,0,0,0,0.00
2012-3-11,81.9,72.1,68.0,68.3,63.0,54.0,90,75,40,30.30,30.21,0,0,0,0.63
2012-3-12,79.7,69.6,66.4,64.4,61.1,51.3,85,76,41,30.30,30.21,0,0,0,0.63
2012-3-13,80.4,71.0,64.8,60.3,55.4,48.7,81,61,34,30.27,30.18,0,0,0,0.00
2012-3-14,81.0,73.3,63.7,61.9,56.7,50.7,81,58,36,30.27,30.18,0,0,0,0.00
2012-3-15,82.2,73.4,65.1,61.4,56.3,50.5,82,57,34,30.27,30.18,0,0,0,0.00
2012-3-16,81.9,73.1,66.6,63.7,57.0,49.8,85,59,34,30.27,30.15,0,0,0,0.00
2012-3-17,82.9,72.8,64.6,61.1,54.4,42.4,82,55,24,30.24,30.15,0,0,0,0.00
2012-3-18,82.9,72.1,63.5,61.6,54.6,45.2,79,56,28,30.27,30.15,0,0,0,0.00
2012-3-19,83.1,72.5,64.8,60.5,55.6,46.9,81,58,29,30.21,30.09,0,0,0,0.00
2012-3-20,81.1,73.1,65.3,60.4,55.9,49.5,76,57,35,30.15,30.06,0,0,0,0.00
2012-3-21,82.9,71.5,66.4,68.0,58.7,53.6,90,65,40,30.18,30.06,0,0,0,0.66
2012-3-22,82.2,75.5,68.7,68.9,63.2,58.6,91,68,46,30.21,30.09,0,0,0,0.00
2012-3-23,80.6,74.7,69.6,67.0,63.3,58.6,83,69,49,30.18,30.06,0,0,0,0.00
2012-3-24,79.9,74.5,70.5,67.7,63.4,56.7,87,70,47,30.09,30.01,0,0,0,0.00
2012-3-25,77.9,73.7,70.0,68.6,52.0,44.6,91,48,34,30.01,29.92,0,0,0,0.71
2012-3-26,78.8,73.9,65.8,60.5,48.9,40.7,76,43,27,30.04,29.92,0,0,0,0.00
2012-3-27,82.8,77.8,63.7,58.1,47.5,38.4,76,36,25,30.21,30.06,0,0,0,0.00
2012-3-28,82.2,73.1,65.1,58.1,53.1,42.6,74,52,25,30.21,30.09,0,0,0,0.00
2012-3-29,79.9,73.1,67.3,63.2,58.7,52.3,82,62,39,30.12,30.04,0,0,0,0.00
2012-3-30,81.0,75.2,67.5,65.0,56.9,51.9,87,55,37,30.09,30.01,0,0,0,0.00
2012-3-31,80.1,77.1,74.1,57.9,54.3,52.1,57,46,41,30.06,30.04,0,0,0,0.00
2012-4-3,80.6,75.6,65.5,55.4,53.7,51.7,61,48,40,30.06,29.95,0,0,0,0.00
2012-4-4,82.2,75.2,66.6,69.3,65.1,54.5,85,72,41,30.01,29.89,0,0,0,0.11
2012-4-5,80.8,71.6,68.5,69.3,64.2,54.9,90,79,42,29.98,29.77,0,0,0,0.18
2012-4-6,79.9,76.5,70.2,64.4,54.4,45.8,70,48,32,30.01,29.80,0,0,0,0.00
2012-4-7,81.5,74.4,62.2,53.4,47.2,40.7,64,40,27,30.18,30.01,0,0,0,0.00
2012-4-8,79.7,71.4,63.3,50.4,44.4,39.2,50,39,24,30.21,30.12,0,0,0,0.00
2012-4-9,79.3,74.0,62.8,54.7,50.5,46.5,67,45,33,30.15,30.04,0,0,0,0.00
2012-4-10,80.2,73.9,64.8,57.2,52.3,46.1,72,49,31,30.12,30.04,0,0,0,0.00
2012-4-11,80.1,72.7,67.3,59.8,55.4,48.0,73,56,34,30.09,30.04,0,0,0,0.00
2012-4-12,80.6,74.1,69.4,59.1,46.2,37.0,64,39,22,30.12,30.04,0,0,0,0.00
2012-4-13,80.6,73.4,65.5,61.4,57.1,47.8,78,58,40,30.15,30.06,0,0,0,0.00
2012-4-14,81.3,75.8,67.8,61.0,55.7,48.8,76,51,36,30.24,30.12,0,0,0,0.00
2012-4-15,83.7,72.9,66.2,55.3,52.7,47.6,68,51,30,30.24,30.18,0,0,0,0.00
2012-4-16,82.0,75.3,66.2,57.0,51.9,46.3,70,45,29,30.24,30.15,0,0,0,0.00
2012-4-17,83.5,75.0,66.4,57.2,52.0,46.8,69,46,29,30.21,30.09,0,0,0,0.00
2012-4-18,81.0,76.7,69.4,61.9,55.9,52.4,63,49,40,30.15,30.04,0,0,0,0.00
2012-4-19,79.5,74.8,71.6,69.3,64.8,61.7,81,71,57,30.06,29.95,0,0,0,0.00
2012-4-20,82.6,76.3,70.5,70.3,64.2,57.9,88,67,46,29.98,29.89,0,0,0,0.12
2012-4-21,77.4,70.6,68.0,67.4,64.0,59.6,90,80,55,29.95,29.65,0,0,0,2.04
2012-4-22,76.3,70.0,63.5,64.9,56.7,40.6,90,65,34,29.80,29.59,0,0,0,1.58
2012-4-23,72.3,69.5,65.7,42.4,38.9,33.8,37,33,27,29.95,29.80,0,0,0,0.00
2012-4-24,70.9,64.2,58.1,37.0,32.8,25.4,35,31,24,30.09,29.95,0,0,0,0.00
2012-4-25,75.6,66.4,54.7,50.2,41.7,35.2,65,42,25,30.15,30.04,0,0,0,0.00
2012-4-26,78.4,70.2,60.4,58.3,52.9,47.7,81,56,35,30.18,30.09,0,0,0,0.00
2012-4-27,77.9,67.4,63.7,63.7,58.1,47.7,86,73,35,30.15,30.09,0,0,0,0.00
2012-4-28,82.4,77.1,68.2,69.1,64.7,58.9,84,67,47,30.12,30.06,0,0,0,0.07
2012-4-29,83.1,75.5,69.6,70.5,64.1,53.4,87,71,36,30.12,30.06,0,0,0,0.04
2012-4-30,79.2,77.0,75.0,59.7,56.1,53.7,59,49,42,30.12,30.09,0,0,0,0.00
2012-5-1,87.4,76.7,71.8,69.1,62.3,55.9,80,63,35,30.12,30.04,0,0,0,0.00
2012-5-2,82.2,75.0,72.0,67.9,65.3,57.9,85,73,44,30.12,30.06,0,0,0,0.04
2012-5-3,84.9,79.5,72.3,66.5,61.1,56.0,80,55,39,30.15,30.06,0,0,0,0.00
2012-5-4,84.4,77.8,73.2,67.9,63.4,56.4,79,63,40,30.15,30.06,0,0,0,0.00
2012-5-5,83.5,77.5,70.0,70.4,63.6,59.3,85,64,47,30.09,30.01,0,0,0,0.00
2012-5-6,84.2,77.8,72.0,69.8,62.6,56.9,86,62,40,30.04,29.98,0,0,0,0.00
2012-5-7,83.5,77.1,72.0,68.1,62.4,56.8,85,62,42,30.01,29.92,0,0,0,0.00
2012-5-8,82.9,76.9,69.6,67.2,62.9,58.7,84,63,47,29.98,29.92,0,0,0,0.00
2012-5-9,85.1,79.7,73.8,69.3,65.4,60.9,81,63,47,29.95,29.86,0,0,0,0.00
2012-5-10,82.8,78.7,74.5,67.7,59.1,45.7,71,53,33,30.01,29.83,0,0,0,0.00
2012-5-11,88.3,77.9,68.0,63.7,56.4,48.6,75,50,28,30.15,29.98,0,0,0,0.00
2012-5-12,89.1,79.2,71.2,66.6,56.9,49.2,66,48,28,30.21,30.09,0,0,0,0.00
2012-5-13,84.4,77.1,71.6,63.6,58.2,53.8,63,53,39,30.18,30.06,0,0,0,0.00
2012-5-14,83.5,78.3,74.1,69.6,65.2,56.6,77,65,40,30.09,30.01,0,0,0,0.00
2012-5-15,84.9,78.7,72.5,69.7,65.3,61.5,78,65,47,30.09,29.98,0,0,0,0.00
2012-5-16,81.0,75.3,70.7,71.8,66.9,60.3,89,76,52,30.06,29.98,0,0,0,1.13
2012-5-17,82.6,76.3,70.7,71.6,64.9,57.6,89,70,43,30.01,29.95,0,0,0,0.83
2012-5-18,84.4,78.1,72.1,69.8,63.0,54.0,85,62,36,30.01,29.95,0,0,0,0.00
2012-5-19,86.4,78.2,72.5,68.3,63.6,55.8,85,63,36,30.04,29.95,0,0,0,0.09
2012-5-20,84.0,77.1,70.5,66.9,59.1,47.7,82,57,29,30.04,29.98,0,0,0,0.04
2012-5-21,85.3,77.5,68.9,61.2,53.4,38.9,75,46,20,30.06,29.98,0,0,0,0.00
2012-5-22,84.2,77.0,68.7,67.2,58.8,47.1,81,55,30,30.04,29.95,0,0,0,0.00
2012-5-23,87.1,78.7,70.7,69.5,60.5,41.5,85,57,21,29.98,29.89,0,0,0,0.00
2012-5-24,90.0,80.2,72.3,70.9,65.5,57.6,88,64,34,29.98,29.89,0,0,0,0.95
2012-5-25,88.5,80.3,74.1,79.5,71.2,63.5,98,76,49,30.09,29.95,0,0,0,0.00
2012-5-26,87.1,80.6,74.1,71.4,64.8,58.8,86,60,40,30.12,30.01,0,0,0,0.00
2012-5-27,86.4,80.9,74.8,73.3,67.6,60.0,79,65,51,30.04,29.92,0,0,0,0.00
2012-5-28,85.8,81.9,75.2,75.3,71.0,64.7,89,70,56,29.98,29.89,0,0,0,0.25
2012-5-29,84.6,80.8,79.0,70.0,68.2,65.6,73,66,56,30.04,29.92,0,0,0,0.00
2012-5-30,86.2,81.8,79.2,71.0,69.4,64.1,75,67,51,29.98,29.92,0,0,0,0.00
2012-5-31,86.2,81.3,78.3,72.0,67.4,59.7,77,64,42,29.98,29.92,0,0,0,0.00
2012-6-1,79.5,77.3,75.0,72.0,68.6,64.9,86,75,64,30.01,29.92,0,0,0,0.54
2012-6-5,81.7,78.7,76.5,75.1,72.2,67.1,87,81,69,29.95,29.89,0,0,0,0.03
2012-6-6,83.3,78.1,73.2,76.9,72.2,63.6,90,82,59,30.01,29.89,0,0,0,0.88
2012-6-7,83.5,78.9,74.5,81.4,74.0,67.8,97,85,74,30.01,29.95,0,0,0,1.86
2012-6-8,86.2,78.4,74.3,78.2,70.8,66.1,94,78,52,30.06,29.92,0,0,0,1.18
2012-6-9,86.2,79.5,72.7,78.8,72.4,68.4,98,80,56,30.06,29.92,0,0,0,0.08
2012-6-10,90.1,82.8,77.5,75.3,68.9,62.0,86,65,43,30.18,30.01,0,0,0,0.00
2012-6-11,90.5,82.4,75.6,71.8,67.3,61.4,78,62,41,30.15,30.06,0,0,0,0.00
2012-6-12,87.4,81.6,75.2,70.0,65.8,60.7,74,60,42,30.12,30.04,0,0,0,0.00
2012-6-13,88.0,82.7,78.3,71.3,68.6,63.9,78,63,49,30.06,29.95,0,0,0,0.00
2012-6-14,88.0,82.6,76.3,70.8,66.4,60.0,74,59,42,30.09,29.95,0,0,0,0.00
2012-6-15,87.8,79.5,73.8,69.4,64.1,55.2,81,61,41,30.09,29.98,0,0,0,0.00
2012-6-16,89.1,81.5,74.7,67.7,59.9,46.8,78,51,25,30.09,30.01,0,0,0,0.00
2012-6-17,88.7,80.5,72.7,64.4,57.3,50.6,74,48,29,30.12,29.98,0,0,0,0.00
2012-6-18,88.3,80.1,72.0,63.9,56.3,48.8,73,47,27,30.09,30.01,0,0,0,0.00
2012-6-19,86.2,79.0,72.1,62.4,56.7,49.3,68,48,30,30.12,30.04,0,0,0,0.00
2012-6-20,87.6,78.8,75.4,72.1,65.8,60.1,86,65,41,30.09,29.98,0,0,0,0.75
2012-6-21,85.3,78.1,75.0,72.7,70.6,64.6,86,79,52,30.04,29.92,0,0,0,0.33
2012-6-22,83.5,78.6,76.5,75.0,71.2,68.6,85,78,62,29.98,29.86,0,0,0,0.12
2012-6-23,78.6,77.1,75.6,77.5,73.7,71.1,98,89,81,30.01,29.89,0,0,0,1.25
2012-6-24,80.1,77.4,75.0,79.1,76.7,74.4,98,98,97,29.95,29.74,0,0,0,4.05
2012-6-25,82.9,79.8,73.8,81.7,77.8,66.2,98,94,62,29.77,29.68,0,0,0,1.54
2012-6-26,84.0,80.1,77.2,79.7,73.9,69.6,98,82,67,29.74,29.62,0,0,0,0.50
2012-6-27,86.0,79.7,75.4,76.4,69.6,62.9,98,73,48,30.06,29.74,0,0,0,0.12
2012-6-28,88.3,80.4,72.5,69.1,60.9,55.6,77,54,34,30.12,30.04,0,0,0,0.00
2012-6-29,87.1,79.8,72.1,67.6,61.8,58.1,77,56,39,30.09,30.01,0,0,0,0.00
2012-6-30,88.2,82.3,79.0,69.5,65.6,59.3,72,58,40,30.06,29.98,0,0,0,0.00
2012-7-1,89.4,82.5,76.3,72.2,67.2,63.1,79,62,42,30.15,30.04,0,0,0,0.00
2012-7-2,89.4,83.3,78.1,73.8,68.1,62.1,79,62,41,30.18,30.06,0,0,0,0.00
2012-7-3,90.5,83.3,77.4,72.7,66.0,59.8,78,58,37,30.15,30.06,0,0,0,0.00
2012-7-4,89.8,83.0,77.5,72.0,65.6,58.1,76,57,35,30.15,30.09,0,0,0,0.00
2012-7-6,91.2,85.4,77.5,71.0,64.4,60.0,76,51,39,30.12,30.06,0,0,0,0.00
2012-7-7,91.9,83.8,76.6,69.7,66.2,61.7,74,57,39,30.15,30.09,0,0,0,0.00
2012-7-8,92.8,83.9,77.2,71.3,66.3,58.8,75,57,34,30.15,30.06,0,0,0,0.00
2012-7-9,90.7,84.2,75.0,74.1,68.6,60.6,81,61,41,30.12,30.04,0,0,0,1.21
2012-7-10,89.2,79.5,74.8,72.9,67.9,58.6,80,69,42,30.12,30.04,0,0,0,0.07
2012-7-11,88.5,78.1,74.7,71.2,68.4,62.4,81,73,44,30.09,30.01,0,0,0,0.10
2012-7-12,88.5,79.1,74.5,74.8,69.1,63.1,87,73,44,30.09,30.01,0,0,0,1.85
2012-7-13,86.4,76.9,74.8,77.5,72.7,61.0,97,87,43,30.12,30.01,0,0,0,0.17
2012-7-14,76.6,75.5,75.4,73.1,72.8,72.1,92,92,87,30.12,30.04,0,0,0,0.45
2012-7-15,89.1,78.9,75.4,76.2,70.4,54.4,98,79,37,30.15,30.06,0,0,0,0.37
2012-7-16,80.2,77.8,74.8,75.7,72.4,69.1,89,84,73,30.12,30.01,0,0,0,0.50
2012-7-17,84.6,79.0,75.9,72.3,70.2,67.5,84,75,57,30.09,30.01,0,0,0,0.67
2012-7-18,87.4,81.6,77.0,71.2,69.0,65.5,81,66,50,30.18,30.04,0,0,0,0.00
2012-7-19,90.1,83.3,78.3,75.8,70.3,66.5,85,66,46,30.24,30.15,0,0,0,0.00
2012-7-20,92.5,84.3,78.8,74.0,69.2,63.4,80,63,39,30.18,30.09,0,0,0,0.00
2012-7-21,93.7,83.7,77.4,71.2,68.5,58.3,78,62,37,30.15,30.06,0,0,0,0.00
2012-7-22,92.3,79.8,74.7,75.2,69.2,62.0,84,72,38,30.18,30.06,0,0,0,0.70
2012-7-23,87.6,78.9,74.3,77.8,70.5,65.6,91,76,56,30.21,30.12,0,0,0,0.00
2012-7-24,89.1,81.7,76.5,75.5,69.9,63.3,83,69,49,30.18,30.09,0,0,0,0.00
2012-7-25,90.0,84.0,81.1,76.0,70.4,61.3,77,64,46,30.12,30.04,0,0,0,0.03
2012-7-26,90.5,84.2,79.5,72.6,68.7,62.7,76,61,42,30.12,30.01,0,0,0,0.00
2012-7-27,90.3,84.0,78.6,72.1,66.9,58.0,78,58,38,30.15,30.04,0,0,0,0.00
2012-7-28,93.0,84.2,78.3,74.0,67.2,58.9,79,59,38,30.18,30.06,0,0,0,0.00
2012-7-29,90.9,83.8,78.3,73.3,67.5,61.3,79,60,39,30.12,30.06,0,0,0,0.00
2012-7-30,90.1,83.1,79.0,73.2,68.9,58.8,79,64,38,30.09,30.04,0,0,0,0.05
2012-7-31,90.0,82.9,78.1,71.7,68.1,61.3,79,63,41,30.09,30.04,0,0,0,0.00
2012-8-1,90.0,83.7,79.5,72.4,69.1,64.7,78,62,46,30.09,30.01,0,0,0,0.00
2012-8-2,91.2,83.8,78.4,72.9,67.7,60.7,79,60,39,30.06,29.98,0,0,0,0.00
2012-8-3,91.0,82.7,77.4,73.3,66.4,57.4,80,60,34,30.09,29.98,0,0,0,0.00
2012-8-4,91.9,84.1,75.6,71.8,65.3,56.7,79,56,32,30.12,30.01,0,0,0,0.00
2012-8-5,89.6,82.0,77.7,72.8,69.1,62.8,79,66,47,30.18,30.06,0,0,0,0.00
2012-8-6,91.8,80.3,76.3,74.9,70.0,63.9,82,72,43,30.15,30.04,0,0,0,0.00
2012-8-7,88.9,81.8,75.7,75.9,71.0,67.7,84,71,51,30.09,30.04,0,0,0,0.00
2012-8-8,92.8,84.6,79.0,73.7,68.2,62.4,77,59,40,30.12,30.06,0,0,0,0.00
2012-8-9,93.6,85.0,77.7,71.7,66.7,59.2,77,56,34,30.09,30.01,0,0,0,0.00
2012-8-10,90.5,83.6,79.3,72.1,67.6,61.8,77,60,41,30.06,29.98,0,0,0,0.00
2012-8-11,89.4,82.3,76.6,74.9,67.2,62.4,81,61,41,30.09,30.01,0,0,0,0.00
2012-8-12,91.6,81.4,77.5,73.8,69.2,62.7,81,68,41,30.12,30.04,0,0,0,0.00
2012-8-13,90.3,82.6,77.5,75.1,69.5,62.7,84,67,41,30.15,30.09,0,0,0,0.00
2012-8-14,91.4,83.2,77.9,74.0,68.5,61.5,79,63,41,30.12,30.04,0,0,0,0.00
2012-8-15,91.2,83.0,76.5,73.9,67.3,62.8,79,61,40,30.12,30.01,0,0,0,0.00
2012-8-16,90.9,83.4,77.2,75.8,70.0,63.2,80,66,41,30.15,30.04,0,0,0,0.00
2012-8-17,89.4,82.9,79.3,75.1,70.3,63.1,81,67,44,30.09,30.01,0,0,0,0.00
2012-8-18,82.8,79.3,77.0,73.7,71.7,68.1,82,78,71,30.06,29.95,0,0,0,0.33
2012-8-19,91.2,83.2,77.5,78.5,71.3,66.0,94,70,45,30.06,29.98,0,0,0,0.46
2012-8-20,92.7,83.6,78.1,72.6,69.9,65.2,80,65,42,30.06,29.98,0,0,0,0.11
2012-8-21,90.1,81.2,74.5,77.4,70.4,60.4,87,72,40,30.15,30.01,0,0,0,1.20
2012-8-22,88.5,78.1,74.1,76.4,69.0,60.9,89,75,45,30.15,30.04,0,0,0,0.00
2012-8-23,89.1,80.2,74.5,71.6,66.8,61.3,82,65,43,30.15,30.06,0,0,0,0.00
2012-8-24,90.0,81.9,75.7,73.1,68.7,58.4,82,65,40,30.12,29.98,0,0,0,0.00
2012-8-25,88.9,81.4,75.2,69.9,64.9,56.5,80,59,39,30.06,29.98,0,0,0,0.00
2012-8-26,82.8,79.2,76.3,72.0,69.8,63.8,85,73,61,30.04,29.83,0,0,0,0.33
2012-8-27,85.5,79.8,76.3,82.2,75.3,71.4,98,87,65,29.89,29.74,0,0,0,1.20
2012-8-28,87.8,82.8,79.0,80.1,73.7,68.4,97,75,58,30.04,29.89,0,0,0,0.17
2012-8-29,88.0,82.0,77.5,76.9,71.1,66.0,87,71,50,30.06,29.98,0,0,0,0.00
2012-8-30,91.2,83.2,77.9,75.8,69.4,61.3,84,65,39,30.15,30.01,0,0,0,0.00
2012-8-31,90.1,83.4,77.5,73.4,68.4,60.4,79,62,38,30.24,30.12,0,0,0,0.00
2012-9-1,90.9,83.6,77.9,73.8,67.5,60.4,80,60,38,30.21,30.09,0,0,0,0.00
2012-9-2,90.1,81.8,75.2,69.4,64.1,55.2,78,58,33,30.15,30.04,0,0,0,0.00
2012-9-3,88.7,81.2,73.6,70.5,63.5,54.9,77,57,36,30.12,30.04,0,0,0,0.00
2012-9-4,89.6,82.0,75.9,71.2,65.6,57.0,79,60,35,30.09,30.04,0,0,0,0.00
2012-9-5,89.8,82.0,76.5,70.8,67.2,62.1,78,62,42,30.06,29.98,0,0,0,0.00
2012-9-6,89.1,81.5,76.1,73.4,68.2,62.6,82,65,42,30.09,30.01,0,0,0,0.04
2012-9-7,88.9,81.9,76.1,73.4,68.1,62.6,80,65,43,30.06,29.98,0,0,0,0.00
2012-9-8,89.8,84.3,78.8,70.7,67.1,63.1,73,58,42,30.04,29.92,0,0,0,0.00
2012-9-9,84.4,81.9,77.4,75.0,71.2,68.9,81,70,63,30.04,29.92,0,0,0,0.50
2012-9-10,87.6,82.4,78.6,74.0,69.4,65.1,78,66,50,30.09,29.98,0,0,0,0.03
2012-9-11,87.3,80.4,75.7,72.5,68.1,61.9,81,68,46,30.18,30.06,0,0,0,0.04
2012-9-12,84.6,78.1,73.9,67.4,63.9,59.9,74,63,45,30.18,30.09,0,0,0,0.00
2012-9-13,86.2,79.0,75.4,70.6,67.2,61.5,77,68,46,30.18,30.06,0,0,0,0.00
2012-9-14,88.3,79.1,75.6,72.1,68.6,62.0,83,71,43,30.12,30.04,0,0,0,1.14
2012-9-15,85.8,79.4,75.7,71.8,68.3,61.7,83,70,45,30.12,30.04,0,0,0,0.00
2012-9-16,84.9,77.4,74.1,70.5,68.8,62.8,85,75,48,30.09,30.04,0,0,0,0.66
2012-9-17,82.4,78.8,73.9,77.7,70.7,69.3,93,77,67,30.06,29.98,0,0,0,0.04
2012-9-18,86.9,80.7,76.8,74.4,70.7,54.2,80,72,44,30.01,29.92,0,0,0,0.25
2012-9-19,85.3,80.2,76.8,71.9,69.6,67.7,79,71,57,30.09,29.95,0,0,0,0.00
2012-9-20,86.9,80.4,76.5,74.1,69.2,63.4,84,70,49,30.09,30.01,0,0,0,0.00
2012-9-21,85.8,79.2,75.0,71.3,67.9,63.9,80,69,49,30.09,29.98,0,0,0,0.57
2012-9-22,87.1,78.7,74.3,71.8,67.8,61.0,83,71,42,30.12,30.01,0,0,0,0.05
2012-9-23,88.9,80.2,74.7,72.8,65.5,57.8,83,63,38,30.15,30.06,0,0,0,0.00
2012-9-24,82.0,77.1,73.2,65.3,52.6,45.7,62,43,30,30.18,30.09,0,0,0,0.00
2012-9-25,85.1,76.9,71.2,59.9,56.5,52.6,63,50,35,30.15,30.09,0,0,0,0.00
2012-9-26,87.6,79.1,74.3,68.6,63.9,59.4,79,61,41,30.18,30.09,0,0,0,0.00
2012-9-27,90.0,80.5,73.9,71.7,65.1,58.2,80,62,36,30.18,30.06,0,0,0,0.00
2012-9-28,87.6,80.5,74.7,71.7,66.3,58.5,82,63,38,30.09,29.98,0,0,0,0.00
2012-9-29,86.7,81.4,77.9,73.2,69.3,64.5,78,67,51,30.04,29.92,0,0,0,0.79
2012-9-30,88.3,80.5,75.2,72.6,68.3,62.5,81,68,45,29.95,29.83,0,0,0,0.00
2012-10-1,88.7,81.4,77.0,73.1,68.9,63.1,80,67,44,29.89,29.80,0,0,0,0.00
2012-10-2,84.0,80.6,77.4,72.9,70.5,65.4,80,72,55,30.06,29.83,0,0,0,0.36
2012-10-3,80.2,77.7,75.6,74.9,71.0,65.3,87,80,69,30.21,30.04,0,0,0,1.37
2012-10-4,85.3,77.8,73.2,79.7,70.5,54.9,95,79,44,30.21,30.12,0,0,0,0.03
2012-10-5,83.8,77.8,73.0,78.0,70.7,67.2,89,79,66,30.18,30.01,0,0,0,0.25
2012-10-6,86.2,78.3,74.5,75.5,70.3,64.6,86,77,50,30.04,29.89,0,0,0,0.00
2012-10-7,86.0,78.1,73.0,73.4,67.7,64.0,85,71,51,30.04,29.95,0,0,0,0.00
2012-10-8,86.4,78.3,73.9,73.7,69.2,66.1,83,74,51,30.09,29.98,0,0,0,0.00
2012-10-9,83.1,76.9,73.6,72.8,69.6,60.2,85,79,46,30.09,30.01,0,0,0,0.00
2012-10-10,85.5,77.9,71.8,68.3,63.8,58.1,79,64,41,30.15,30.06,0,0,0,0.00
2012-10-11,84.4,76.3,69.3,65.1,59.3,53.1,80,58,36,30.21,30.12,0,0,0,0.00
2012-10-12,83.7,76.1,69.8,62.6,56.9,49.5,76,54,32,30.21,30.15,0,0,0,0.00
2012-10-13,84.7,76.1,70.2,60.7,55.7,49.5,70,51,33,30.21,30.12,0,0,0,0.00
2012-10-14,86.2,80.1,71.6,65.7,60.5,52.3,77,53,33,30.12,30.04,0,0,0,0.00
2012-10-15,86.2,78.9,74.5,70.2,66.6,61.5,82,67,45,30.04,29.89,0,0,0,0.00
2012-10-16,84.9,77.5,72.1,68.8,62.3,52.5,81,62,40,29.92,29.86,0,0,0,0.00
2012-10-17,76.5,73.7,72.1,65.7,61.0,53.1,77,65,48,29.95,29.86,0,0,0,0.00
2012-10-18,86.4,77.2,71.4,68.7,65.4,59.7,79,68,42,29.92,29.86,0,0,0,0.00
2012-10-19,84.6,77.5,71.2,71.4,65.0,57.2,83,67,41,29.92,29.86,0,0,0,0.00
2012-10-20,81.9,76.8,70.9,68.9,55.2,43.0,77,49,32,30.01,29.89,0,0,0,0.00
2012-10-21,81.3,72.7,64.9,49.8,45.1,38.2,53,38,22,30.06,29.98,0,0,0,0.00
2012-10-22,83.8,74.6,67.1,56.3,52.6,48.3,66,48,30,30.12,30.01,0,0,0,0.00
2012-10-23,82.6,74.5,67.6,61.4,57.2,54.9,70,56,40,30.09,30.01,0,0,0,0.00
2012-10-24,85.1,76.5,70.0,66.1,58.9,50.6,78,57,31,30.06,29.95,0,0,0,0.00
2012-10-25,81.5,76.2,72.1,67.2,63.3,57.1,79,65,45,29.98,29.83,0,0,0,0.00
2012-10-26,84.6,77.4,73.8,66.8,61.5,52.8,77,60,34,29.86,29.68,0,0,0,0.00
2012-10-27,78.6,75.2,72.7,61.7,55.1,52.0,64,50,41,29.80,29.65,0,0,0,0.00
2012-10-28,74.7,71.7,67.1,62.1,52.2,42.1,65,51,38,29.86,29.74,0,0,0,0.00
2012-10-29,68.9,65.9,63.0,45.0,39.1,31.5,48,38,27,29.92,29.80,0,0,0,0.00
2012-10-30,68.7,65.0,61.7,39.3,36.0,31.7,37,34,28,29.98,29.86,0,0,0,0.00
2012-10-31,71.8,66.8,61.9,53.1,42.6,37.9,68,42,32,30.06,29.98,0,0,0,0.00
2012-11-1,74.3,70.3,63.9,61.0,56.1,50.3,74,61,46,30.06,29.98,0,0,0,0.00
2012-11-2,75.0,67.7,62.6,59.6,52.3,41.2,81,61,31,30.09,30.04,0,0,0,0.00
2012-11-3,78.4,68.7,61.3,62.8,56.6,52.6,82,66,42,30.15,30.06,0,0,0,0.00
2012-11-4,77.4,71.9,66.4,65.3,59.1,51.6,85,66,42,30.15,30.04,0,0,0,0.00
2012-11-5,74.7,70.7,67.8,65.1,59.2,50.3,81,68,44,30.04,29.95,0,0,0,0.00
2012-11-6,69.6,66.8,64.0,60.2,54.2,44.7,78,66,43,30.09,29.89,0,0,0,0.00
2012-11-7,72.7,65.1,63.9,61.9,47.0,34.9,69,53,35,30.09,29.89,0,0,0,0.00
2012-11-8,72.7,61.2,55.0,61.9,35.8,29.6,69,39,25,30.18,30.06,0,0,0,0.00
2012-11-9,59.9,54.2,51.3,43.8,41.2,37.8,69,62,45,30.24,30.09,0,0,0,0.00
2012-11-10,75.4,65.7,57.4,47.6,42.1,39.2,60,43,30,30.27,30.18,0,0,0,0.00
2012-11-11,79.3,69.6,60.1,55.2,50.8,45.8,75,53,32,30.27,30.21,0,0,0,0.00
2012-11-12,80.8,71.7,64.9,63.6,57.7,50.5,79,63,36,30.24,30.15,0,0,0,0.00
2012-11-13,77.5,72.0,67.6,65.1,60.8,53.6,81,69,45,30.21,30.12,0,0,0,0.00
2012-11-14,75.6,69.7,66.6,62.8,60.7,57.4,82,74,55,30.21,30.12,0,0,0,0.00
2012-11-15,72.0,68.2,65.3,62.5,59.2,55.5,82,73,57,30.18,30.09,0,0,0,0.00
2012-11-16,67.1,64.0,61.9,56.7,53.7,52.1,77,69,60,30.21,30.09,0,0,0,0.00
2012-11-17,73.2,66.7,61.5,59.8,56.0,53.4,80,69,54,30.18,30.06,0,0,0,0.00
2012-11-18,71.8,66.0,61.7,57.0,54.0,48.8,79,66,47,30.18,30.12,0,0,0,0.00
2012-11-19,63.0,59.7,57.9,52.5,50.8,49.5,79,72,62,30.18,30.15,0,0,0,0.00
2012-11-20,72.7,65.7,61.9,61.9,51.3,48.8,70,60,50,30.12,30.01,0,0,0,0.00
2012-11-21,70.9,65.9,60.1,55.8,48.6,41.2,80,55,35,30.09,30.01,0,0,0,0.00
2012-11-22,72.7,60.9,56.5,61.9,42.6,29.8,71,53,31,30.18,30.09,0,0,0,0.00
2012-11-23,72.7,59.8,49.6,61.9,35.6,26.9,69,42,25,30.24,30.09,0,0,0,0.00
2012-11-24,71.1,62.8,56.3,58.8,47.2,30.7,84,58,25,30.15,30.06,0,0,0,0.00
2012-11-25,66.4,58.3,51.3,43.8,32.9,26.7,65,40,24,30.18,30.09,0,0,0,0.00
2012-11-26,75.2,62.0,50.2,55.2,45.1,29.5,74,55,40,30.21,30.12,0,0,0,0.00
2012-11-27,76.8,68.0,61.0,61.6,57.3,50.2,81,70,42,30.18,30.12,0,0,0,0.00
2012-11-28,73.0,66.5,59.5,62.6,56.5,49.7,84,71,48,30.27,30.15,0,0,0,0.00
2012-11-29,75.6,65.6,58.5,53.0,49.7,44.6,79,59,34,30.27,30.18,0,0,0,0.00
2012-11-30,75.6,67.5,60.3,53.8,49.1,44.6,74,53,34,30.27,30.15,0,0,0,0.00
2012-12-1,77.0,67.9,60.4,57.9,50.4,45.4,80,55,34,30.27,30.18,0,0,0,0.00
2012-12-2,65.8,64.7,64.0,59.1,58.2,56.4,82,80,72,30.27,30.21,0,0,0,0.00
2012-12-3,69.3,67.6,64.8,59.1,49.8,47.4,82,53,46,30.27,30.24,0,0,0,0.00
2012-12-4,77.9,69.4,63.7,54.1,49.0,40.9,70,50,28,30.27,30.18,0,0,0,0.00
2012-12-5,75.4,67.8,61.5,60.0,54.1,44.4,78,62,34,30.21,30.06,0,0,0,0.00
2012-12-6,78.8,70.9,65.5,60.6,57.0,50.6,80,63,40,30.06,29.95,0,0,0,0.00
2012-12-7,75.6,69.4,64.4,61.9,60.0,56.7,83,73,53,30.04,29.95,0,0,0,0.00
2012-12-8,79.0,71.2,66.9,66.9,61.7,55.6,83,73,46,30.09,30.01,0,0,0,0.00
2012-12-9,76.6,70.8,67.5,65.1,61.8,57.0,81,74,52,30.12,30.04,0,0,0,0.00
2012-12-10,78.1,71.8,66.7,71.0,65.6,60.0,85,81,77,30.06,29.92,0,0,0,0.00
2012-12-11,75.6,73.2,71.4,70.7,68.0,66.7,88,84,79,30.09,29.95,0,0,0,0.00
2012-12-12,78.6,75.2,71.1,71.3,67.6,65.9,89,78,66,30.12,30.04,0,0,0,0.00
2012-12-13,69.8,65.9,59.2,57.5,50.4,46.7,70,58,45,30.21,30.06,0,0,0,0.00
2012-12-14,68.4,62.3,58.1,56.5,52.9,49.0,80,72,56,30.24,30.12,0,0,0,0.00
2012-12-15,74.7,66.6,60.3,61.9,57.7,53.9,83,74,56,30.15,30.06,0,0,0,0.00
2012-12-16,76.3,69.3,64.0,65.8,59.4,56.1,83,72,51,30.09,29.98,0,0,0,0.00
2012-12-17,76.5,71.1,66.2,67.7,63.0,60.2,83,76,61,30.04,29.95,0,0,0,0.00
2012-12-18,75.9,71.7,61.7,69.7,63.6,52.2,85,76,56,30.06,29.95,0,0,0,0.00
2012-12-19,74.3,63.6,56.1,52.6,48.1,41.7,78,59,32,30.15,30.06,0,0,0,0.00
2012-12-20,77.4,69.0,58.5,67.7,58.5,47.5,82,70,51,30.09,29.98,0,0,0,0.00
2012-12-21,71.4,60.1,56.3,66.3,36.6,28.9,84,42,30,30.24,30.04,0,0,0,0.00
2012-12-22,60.3,54.0,49.5,36.7,29.7,23.4,61,40,25,30.30,30.21,0,0,0,0.00
2012-12-23,66.2,54.6,44.2,40.6,34.8,25.9,70,49,25,30.27,30.15,0,0,0,0.00
2012-12-24,67.8,60.4,52.7,55.5,44.5,32.5,74,56,43,30.15,29.98,0,0,0,0.00
2012-12-25,72.3,65.4,58.6,59.1,52.2,47.3,82,64,45,30.04,29.92,0,0,0,0.00
2012-12-26,75.0,67.1,58.8,67.4,54.6,40.7,84,65,50,30.06,29.86,0,0,0,0.00
2012-12-27,60.6,56.0,51.4,43.6,40.3,35.0,74,56,40,30.12,30.01,0,0,0,0.00
2012-12-28,69.3,59.9,48.4,64.4,49.7,41.3,86,70,43,30.09,29.95,0,0,0,0.00
2012-12-29,72.7,67.6,58.6,68.2,58.8,39.2,87,74,48,30.21,29.89,0,0,0,0.00
2012-12-30,58.6,51.4,44.8,40.6,32.3,27.3,64,48,35,30.36,30.18,0,0,0,0.00
2012-12-31,71.4,58.3,48.2,51.4,45.5,38.2,80,64,40,30.33,30.18,0,0,0,0.00
2013-1-1,74.5,65.0,57.6,59.7,51.7,46.7,83,65,38,30.21,30.06,0,0,0,0.00